Location: 22
(39.7117°N, 89.5929°W)
Time: 17:24:04
(UTC-05:00)

Tiros 1 despin weight - Pass Details

Date: 14 August 2024
Orbit: 573 x 617 km, 48.2° (Epoch: 17 September)

Event Time Altitude Azimuth Distance (km) Brightness Sun altitude
Rises 21:55:53 0° 300° (WNW) 2,785 ? -21.0°
Reaches altitude 10° 21:58:09 10° 300° (WNW) 1,881 ? -21.3°
Maximum altitude 22:02:27 83° 214° (SW) 580 ? -21.9°
Enters shadow 22:02:47 75° 150° (SSE) 595 ? -22.0°
